Location: Peebles
(55.6412°N, 3.1714°W)
Time: 03:10:28
(UTC+01:00)

SPACEBEE-3 - Visible Passes

Search period start: 01 July 2022 00:00
Search period end: 11 July 2022 00:00
Orbit: 394 x 400 km, 97.4° (Epoch: 30 June)

Date Brightness Start Highest point End Pass type
(mag) Time Alt. Az. Time Alt. Az. Time Alt. Az.
01 Jul ? 23:09:20 10° SE 23:12:04 29° ENE 23:14:50 10° N visible
02 Jul ? 00:41:30 12° SSW 00:43:48 24° W 00:46:25 10° NW visible
02 Jul ? 23:49:53 14° SSE 23:52:30 84° ENE 23:55:38 10° NNW visible
03 Jul ? 22:58:56 10° ESE 23:01:27 23° ENE 23:03:59 10° N visible
04 Jul ? 00:30:44 13° SSW 00:33:02 31° W 00:35:53 10° NNW visible
04 Jul ? 23:38:58 13° SSE 23:41:39 61° ENE 23:44:45 10° N visible
05 Jul ? 01:12:21 10° WSW 01:13:42 12° W 01:15:05 10° WNW visible
06 Jul ? 00:19:39 15° SSW 00:21:57 42° W 00:24:57 10° NNW visible
06 Jul ? 23:27:43 11° SE 23:30:28 44° ENE 23:33:27 10° N visible
07 Jul ? 01:00:22 10° SW 01:02:23 16° W 01:04:25 10° NW visible
08 Jul ? 00:08:13 16° S 00:10:33 59° WSW 00:13:38 10° NNW visible
08 Jul ? 23:16:10 10° SE 23:18:59 33° ENE 23:21:49 10° N visible
09 Jul ? 00:48:39 12° SW 00:50:44 21° W 00:53:10 10° NW visible
09 Jul ? 23:56:27 16° SSE 23:58:49 84° WSW 00:01:56 10° NNW visible
10 Jul ? 23:04:35 10° ESE 23:07:10 25° ENE 23:09:46 10° N visible
